Home   Weather   Fjerdingby   Past weeks

Flag for Norway Past Weather in Fjerdingby, Norway — Yesterday and Last 2 Weeks

Now
26 °F

Fog.


Feels Like: 26 °F
Forecast: 28 / 43 °F
Wind: No wind

Location: Oslo-Blindern

Current Time: Jan 18, 2017 at 11:14:29 am

Latest Report: Jan 18, 2017 at 10:00 am


Visibility: 0 mi

Pressure: 30.34 "Hg

Humidity: 99%

Dew Point: 26 °F

Location of FjerdingbyLocation

Past Weather in Fjerdingby — Graph

°F

Fjerdingby Temperature Yesterday

Maximum temperature yesterday: 29 °F (at 7:00 pm)
Minimum temperature yesterday: 22 °F (at 12:00 am)
Average temperature yesterday: 26 °F

High & Low Weather Summary for the Past Weeks

 TemperatureHumidityPressure
High42 °F (Jan 11, 3:00 am)100% (Jan 9, 1:00 pm)30.68 "Hg (Jan 9, 1:00 pm)
Low10 °F (Jan 6, 6:00 am)47% (Jan 4, 10:00 am)28.50 "Hg (Jan 11, 4:00 pm)
Average28 °F85%29.82 "Hg
* Reported Jan 3 10:00 am — Jan 18 9:00 am, Fjerdingby, Weather by CustomWeather, © 2017

Note: Actual official high and low records may vary slightly from our data, if they occured in-between our weather recording intervals... More about our weather records

Advertising

Fjerdingby Weather History for the Previous 24 Hours

Scroll right to see more
 ConditionsComfort  
Time TempWeatherWind HumidityBarometerVisibility
9:00 am
Wed, Jan 18
25 °FFog.1 mph99%30.34 "Hg2 mi
8:00 am25 °FCold.2 mph98%30.34 "Hg1 mi
7:00 am26 °FLight freezing rain. Low clouds.1 mph99%30.34 "Hg1 mi
6:00 am25 °FChilly.1 mph99%30.35 "HgN/A
5:00 am25 °FSnow flurries. Overcast.1 mph97%30.36 "Hg2 mi
4:00 am24 °FCold.1 mph94%30.37 "Hg13 mi
3:00 am24 °FCold.1 mph92%30.38 "Hg22 mi
2:00 am25 °FCold.1 mph92%30.40 "Hg22 mi
1:00 am26 °FChilly.2 mph92%30.40 "Hg19 mi
12:00 am26 °FChilly.2 mph92%30.40 "Hg22 mi
11:00 pm
Tue, Jan 17
27 °FChilly.1 mph92%30.39 "HgN/A
10:00 pm28 °FPassing clouds.3 mph90%30.39 "Hg37 mi
9:00 pm28 °FChilly.3 mph91%30.38 "HgN/A
8:00 pm29 °FChilly.2 mph93%30.38 "Hg9 mi
7:00 pm29 °FIcy mix. Overcast.1 mph92%30.37 "Hg9 mi
6:00 pm28 °FChilly.1 mph93%30.37 "HgN/A
5:00 pm28 °FHeavy mixture of precip. Overcast.No wind91%30.38 "Hg14 mi
4:00 pm28 °FIcy mix. Low clouds.1 mph91%30.38 "Hg9 mi
3:00 pm28 °FChilly.1 mph91%30.38 "HgN/A
2:00 pm28 °FHeavy mixture of precip. Cloudy.2 mph92%30.38 "Hg8 mi
1:00 pm28 °FLight freezing rain. Overcast.1 mph87%30.39 "Hg34 mi
12:00 pm27 °FChilly.1 mph87%30.40 "HgN/A
11:00 am26 °FChilly.1 mph87%30.41 "Hg17 mi
Weather by CustomWeather, © 2017

See weather overviewHow to use our weather pages